Погода в Беляевке

Россия / Волгоградская область     50°18′22″N   46°13′09″E
темп.,
°C
ветер,
м/с
пор.,
м/с
влажн.,
%
обл.,
%
осадки,
мм/ч
давл.,
гПа
погр.,
м
23 апреля, пт
пт2300:00+13юв347295 0.0 102390
03:00+11вюв347385 0.0 1023106
06:00+10вюв467799 0.0 1023224
09:00+13всв3462100 0.0 1022509
12:00+15всв4550100 0.0 10211093
15:00+15всв4448100 0.0 10191186
18:00+14всв3458100 0.0 1018174
21:00+12юв1170100 0.0 101812
24 апреля, сб
сб2400:00+11сз227272 0.0 101626
03:00+8ссв11867 0.0 101611
06:00+10юз1282100 0.0 101550
09:00+13юз4565100 0.0 1015759
12:00+17зюз794524 0.3 10131739
15:00+16юз794977 0.3 10121986
18:00+13зюз101369100 0.6 10121073
21:00+9з711750 1.6 1014771
25 апреля, вс
вс2500:00+8з814650 0.0 1015821
03:00+5зюз815590 0.0 1016815
06:00+4зюз813663 0.0 1018905
09:00+7з1013545 0.0 10191240
12:00+11з910415 0.0 10201768
15:00+12з78345 0.0 10202196
18:00+11зюз574189 0.0 1020410
21:00+8ссв2356100 0.0 102151
26 апреля, пн
пн2600:00+7юв3458100 0.0 102162
03:00+6юв3360100 0.0 102047
06:00+7вюв3462100 0.0 1020152
09:00+11юв3343100 0.0 10191006
12:00+13юв2337100 0.0 10171795
15:00+14ююв223792 0.0 10151829
18:00+13юз224698 0.0 10141271
21:00+10сз2353100 0.0 101385
27 апреля, вт
вт2700:00+9зюз356666 0.0 1013110
03:00+7з48825 0.0 1013211
06:00+7зсз48859 0.0 1014494
09:00+10зсз565598 0.0 10151024
12:00+12з67405 0.0 10151653
15:00+14з7103373 0.0 10142546
18:00+12зсз6942100 0.0 1015820
21:00+8з365322 0.0 1017116